AirNav   Duncan Aviation - Near you to keep you flying
 
 1173 users online  

2K1 Pond Creek Municipal Airport
Pond Creek, Oklahoma, USA

GOING TO POND CREEK?


FAA INFORMATION EFFECTIVE 04 NOVEMBER 2021

Location

FAA Identifier: 2K1
Lat/Long: 36-39-45.1090N 097-48-31.1980W
36-39.751817N 097-48.519967W
36.6625303,-97.8086661
(estimated)
Elevation: 1061 ft. / 323 m (estimated)
Variation: 07E (1985)
Time zone: UTC -5 (UTC -6 during Standard Time)
Zip code: 73766

Airport Operations

Airport use: Open to the public
Activation date: 05/1947
Control tower: no
ARTCC: KANSAS CITY CENTER
FSS: MC ALESTER FLIGHT SERVICE STATION
NOTAMs facility: MLC (NOTAM-D service available)
Attendance: UNATNDD
Wind indicator: no
Segmented circle: no

Airport Communications

CTAF: 122.9
WX AWOS-3PT at WDG (17 nm S): 120.625 (580-237-1475)

Nearby radio navigation aids

VOR radial/distance  VOR name  Freq  Var
ODGr349/17.4WOODRING VOR/DME109.0008E
ENDr011/19.8VANCE VORTAC115.4005E
PERr255/31.6PIONEER VORTAC113.2006E

Airport Services

Airframe service: NONE
Powerplant service: NONE
Bottled oxygen: NONE
Bulk oxygen: NONE

Runway Information

Runway 15/33

Dimensions: 1220 x 30 ft. / 372 x 9 m
Surface: asphalt, in fair condition
RUNWAY 15  RUNWAY 33
Latitude: 36-39.936500N36-39.751425N
Longitude: 097-48.625000W097-48.527488W
Elevation: 1061.0 ft.1061.0 ft.
Traffic pattern: leftleft
Runway heading: 150 magnetic, 157 true330 magnetic, 337 true
Obstructions: 25 ft. trees, 222 ft. from runway, 95 ft. right of centerline
+15' ROAD 60' FM THRLD END.
none

Runway 17/35

Dimensions: 2320 x 430 ft. / 707 x 131 m
FULL WIDTH OF RY NOT MAINTAINED; USE MIDDLE OF RY SFC.
Surface: turf, in good condition
RUNWAY 17  RUNWAY 35
Latitude: 36-39.924000N36-39.541667N
Longitude: 097-48.520000W097-48.520000W
Elevation: 1061.0 ft.1061.0 ft.
Traffic pattern: leftleft
Runway heading: 173 magnetic, 180 true353 magnetic, 000 true
Obstructions: 35 ft. pole, 100 ft. from runway, 2:1 slope to clearnone

Airport Ownership and Management from official FAA records

Ownership: Publicly-owned
Owner: CITY OF POND CREEK
CITY HALL, PO BOX 6
POND CREEK, OK 73766
Phone 580-532-4915
Manager: ART CURL
CITY HALL, PO BOX 6
POND CREEK, OK 73766
Phone 580-532-4915
OR CONTACT POLICE DEPARTMENT 580-532-5050.

Airport Operational Statistics

Aircraft based on the field: 5
Single engine airplanes: 5
    
Aircraft operations: avg 20/week *
95% local general aviation
5% transient general aviation
* for 12-month period ending 19 September 2018

Additional Remarks

RWY 15/33 PVT MAINTAINED.
FOR CD CTC VANCE APCH AT 580-213-6765. WHEN VANCE APCH IS CLSD, CTC KANSAS CITY ARTCC AT 913-254-8508.

Instrument Procedures

There are no published instrument procedures at 2K1.

Some nearby airports with instrument procedures:

O53 - Medford Municipal Airport (8 nm N)
KWDG - Enid Woodring Regional Airport (17 nm S)
KEND - Vance Air Force Base (20 nm S)
KBKN - Blackwell-Tonkawa Municipal Airport (23 nm E)
F22 - Perry Municipal Airport (31 nm SE)
 
Loc | Ops | Rwys | IFR | FBO | Links
Com | Nav | Svcs | Stats | Notes
Area around 2K1 (Pond Creek Municipal Airport)
 
Road maps at: MapQuest Bing Google
 
Aerial photo
No photo
 
Sectional chart

 
Airport distance calculator
Flying to Pond Creek Municipal Airport? Find the distance to fly.

From to 2K1

Sunrise and sunset
Times for 30-Nov-2021
 Local
(UTC-6)
 Zulu
(UTC)
Morning civil twilight06:5712:57
Sunrise07:2513:25
Sunset17:1523:15
Evening civil twilight17:4323:43

Current date and time
Zulu (UTC)  01-Dec-2021 00:23:56
Local (UTC-6)  30-Nov-2021 18:23:56
 
METAR
KWDG 
18nm S 
302350Z 08006KT 10SM SCT250 13/05 A2999
KEND 
21nm S 
302356Z AUTO 07007KT 10SM CLR 14/05 A2998 RMK AO2 SLP154 T01420048 10206 20142 57009 $
KBKN 
23nm E 
302355Z AUTO 03009KT 10SM CLR 14/05 A3002 RMK AO2
KPNC 
34nm E 
302353Z AUTO 05008KT 10SM CLR 14/04 A3002 RMK AO2 SLP166 T01390044 10211 20133 53002
TAF
KEND 
21nm S 
301800Z 3018/0200 VRB06KT 9999 SKC QNH3004INS TEMPO 3019/3023 04012KT FEW150 TX18/3021Z TN03/0112Z
NOTAMs
Click for the latest NOTAMs
NOTAMs are issued by the DoD/FAA and will open in a separate window not controlled by AirNav.

 

 
 

Would you like to see your business listed on this page?

 If your business provides an interesting product or service to pilots, flight crews, aircraft, or users of the Pond Creek Municipal Airport, you should consider listing it here.  To start the listing process, click on the button below
 
Add a business
 

Other Pages about Pond Creek Municipal Airport

Update a link
 
Copyright © AirNav, LLC. All rights reserved. Privacy Policy  Contact